Location: ?????????
(54.7630°N, 39.4991°E)
Time: 18:35:08
(UTC+00:00)

COBE Rocket - Pass Details

Date: 14 April 2026
Orbit: 676 x 771 km, 97.1° (Epoch: 19 May)

Event Time Altitude Azimuth Distance (km) Brightness Sun altitude
Rises 17:07:07 0° 11° (NNE) 3,153 7.4 -6.6°
Reaches altitude 10° 17:09:23 10° 9° (N) 2,242 6.7 -6.9°
Maximum altitude 17:14:17 67° 288° (WNW) 809 4.4 -7.5°
Drops below altitude 10° 17:19:17 10° 207° (SSW) 2,282 6.4 -8.2°
Sets 17:21:37 0° 205° (SSW) 3,214 7.2 -8.4°
